Regional Weather Roundup
Issued by NWS

Home | Current Version | Previous Version | Graphics & Text | Print | Product List | Glossary On
Versions: 1 2 3 4 5 6 7 8 9 10 11 12 13 14 15 16 17 18 19 20 21 22 23 24 25 26 27 28 29 30 31 32 33 34 35 36 37 38 39 40 41 42 43 44 45 46 47 48 49 50
000
ASUS45 KPSR 200510
RWRAZ

ARIZONA REGIONAL HOURLY WEATHER ROUNDUP
NATIONAL WEATHER SERVICE PHOENIX AZ
1000 PM MST FRI SEP 19 2014

NOTE: FAIR INDICATES FEW OR NO CLOUDS BELOW 12,000 FEET WITH NO
SIGNIFICANT WEATHER AND/OR OBSTRUCTIONS TO VISIBILITY.

AZZ001>003-036-200600-
NORTHWEST ARIZONA

CITY           SKY/WX    TMP DP  RH WIND       PRES   REMARKS
BULLHEAD CITY  CLEAR     88  50  27 CALM      29.79R
KINGMAN        PTCLDY    71  47  42 S3        29.98R
$$

AZZ004>008-015-016-018-200600-
NORTH CENTRAL ARIZONA

CITY           SKY/WX    TMP DP  RH WIND       PRES   REMARKS
GRAND CANYON   CLEAR     55  53  93 CALM      30.20R
PRESCOTT       CLEAR     70  51  51 CALM      30.10R
FLAGSTAFF        N/A     52  50  93 CALM      30.23S
PAYSON         CLEAR     70  61  73 CALM      30.11R
PAGE           CLEAR     81  50  33 SW6       29.98S
$$

AZZ009>014-017-200600-
NORTHEAST ARIZONA

CITY           SKY/WX    TMP DP  RH WIND       PRES   REMARKS
WINSLOW        CLEAR     70  57  63 W9        30.05R
SAINT JOHNS    PTCLDY    71  56  58 SW14      30.09R
SHOW LOW       PTCLDY    63  55  77 S12       30.19S
$$

AZZ023-200600-
GREATER PHOENIX AREA

CITY           SKY/WX    TMP DP  RH WIND       PRES   REMARKS
PHOENIX        PTCLDY    90  57  32 CALM      29.78R
BUCKEYE          N/A     82  66  57 N3        29.79S
LUKE AFB       CLEAR     88  63  42 S5        29.78R
DEER VALLEY    CLEAR     87  59  38 CALM      29.81R
SCOTTSDALE     CLEAR     89  59  36 CALM      29.83R
$$

AZZ027-028-200600-
SOUTHWEST MARICOPA COUNTY AND PINAL COUNTY

CITY           SKY/WX    TMP DP  RH WIND       PRES   REMARKS
CASA GRANDE    CLEAR     82  59  44 CALM      29.83S
$$

AZZ503-504-507>509-200600-
SOUTHEAST ARIZONA

CITY           SKY/WX    TMP DP  RH WIND       PRES   REMARKS
TUCSON         CLEAR     80  69  69 S6        29.94R
DAVIS-MONTHAN  CLEAR     77  69  75 S6        29.93R
NOGALES        CLEAR     68  64  87 E7        30.03R
SIERRA VISTA   PTCLDY    70  63  78 SW9       30.08R
DOUGLAS        MOCLDY    71  65  81 S3        30.04R
SAFFORD        CLEAR     78  66  66 NW6       29.92R
$$

AZZ020-021-025-026-031-200600-
SOUTHWEST ARIZONA

CITY           SKY/WX    TMP DP  RH WIND       PRES   REMARKS
YUMA           CLEAR     92  65  40 S5        29.75R
$$

CAZ031-033-041-043-047-048-061-200600-
SOUTHERN CALIFORNIA

CITY           SKY/WX    TMP DP  RH WIND       PRES   REMARKS
DOWNTOWN L.A.  CLEAR     69  62  78 CALM      29.87R
L.A. AIRPORT   PTCLDY    69  63  81 W9        29.88S
SAN DIEGO      MOCLDY    71  62  73 W7        29.90R
BURBANK        CLEAR     70  59  68 SE3       29.88R
ONTARIO        PTCLDY    70  60  70 SW5       29.89R
RIVERSIDE      CLEAR     70  60  70 W5        29.89R
PALM SPRINGS   CLEAR     87  58  37 NW14      29.79R
EL CENTRO NAS  CLEAR     88  57  34 W8        29.73R
IMPERIAL       CLEAR     86  55  34 CALM      29.72R
BLYTHE         CLEAR     89  46  22 W8        29.76R
NEEDLES        CLEAR     89  45  21 W9        29.78S
$$

NVZ020-UTZ003-200600-
SOUTHERN NEVADA-UTAH

CITY           SKY/WX    TMP DP  RH WIND       PRES   REMARKS
LAS VEGAS      CLEAR     86  32  14 S7        29.83R
SALT LAKE CITY PTCLDY    67  54  63 SE5       30.07R
$$

NMZ009-TXZ055-200600-
NEW MEXICO-WEST TEXAS

CITY           SKY/WX    TMP DP  RH WIND       PRES   REMARKS
ALBUQUERQUE    CLEAR     70  56  61 E8        30.09R
EL PASO        PTCLDY    74  64  71 CALM      30.00R
$$


........................KEY........................
SKY/WX - SKY CONDITION/WEATHER
TMP    - TEMPERATURE IN FAHRENHEIT
DP     - DEW POINT IN FAHRENHEIT
RH     - RELATIVE HUMIDITY IN PERCENT
WIND   - DIRECTION AND SPEED IN MILES PER HOUR (MPH)
VRB    - VARIABLE WIND DIRECTION
PRES   - MEAN SEA LEVEL PRESSURE IN INCHES OF MERCURY
         F - FALLING PRESSURE   R - RISING PRESSURE
         S - STEADY PRESSURE
VSB    - VISIBILITY IN MILES
HX     - HEAT INDEX IN FAHRENHEIT
WCI    - WIND CHILL INDEX IN FAHRENHEIT
TC     - TEMPERATURE IN CELSIUS WHICH IS ALSO KNOWN AS
         TEMPERATURE IN CENTIGRADE
AFB    - AIR FORCE BASE
         LUKE AFB IS LUKE AIR FORCE BASE
         DAVIS-MONTHAN IS DAVIS-MONTHAN AIR FORCE BASE
NAS    - NAVAL AIR STATION
         EL CENTRO NAS IS EL CENTRO NAVAL AIR STATION
N/A    - NOT AVAILABLE



USA.gov is the U.S. government's official web portal to all federal, state and local government web resources and services.